[[{"header":{"parameterUnit":"m.s-1","parameterCategory":2,"la1":30.2991,"la2":30.254,"lo1":-89.0895,"lo2":-89.0444,"dy":0.0017,"dx":0.0017,"nx":28,"ny":28,"refTime":"2023-10-24T03:00:00:Z","depth":"0","parameterNumber":2,"parameterNumberName":"U-component_of_CURRENTS"},"data":[0,0,0,0,0,0,0,0,0,0,0,0,0,0,0,0,0,0,0,0,0,0,0,0,0,0,0,0,0,0,0,0,0,0,0,0,0,0,0,0,0,0,0,0,0,0,0,0,0,0,0,0,0,0,0,0,0,0,0.2195,0.2194,0,0.2069,0.2068,0.2066,0.2016,0.2017,0.2018,0.2018,0.2005,0.2004,0.2003,0,0,0,0,0,0,0,0,0,0,0,0,0,0.2341,0.2339,0.2195,0.2194,0.2193,0.2069,0.2067,0.2065,0.2016,0.2017,0.2018,0.2019,0.2005,0.2004,0.2003,0,0,0,0,0,0,0,0,0,0,0,0,0,0.225,0.2338,0.2195,0.2156,0.2151,0.207,0.2067,0.2065,0.2016,0.2017,0.2018,0.2019,0.2005,0.2004,0.2003,0.1975,0,0,0.1998,0.1998,0,0,0,0,0,0,0,0,0.2255,0.2244,0.2163,0.2158,0.2153,0.2062,0.2114,0.2042,0.2016,0.2064,0.2018,0.2019,0.2036,0.2032,0.2,0.1975,0.1974,0.1998,0.1997,0.1997,0.1996,0,0,0,0,0,0,0,0.2262,0.2249,0.2142,0.2161,0.2155,0.2126,0.2114,0.2099,0.2046,0.206,0.2057,0.2047,0.2034,0.2001,0.2,0.1974,0.1998,0.1997,0.1996,0.1995,0.21,0.2104,0,0,0,0,0,0,0.2285,0.2255,0.2146,0.2139,0.2211,0.2123,0.211,0.2088,0.2043,0.2038,0.2047,0.2046,0.2003,0.2001,0.1999,0.2094,0.1997,0.1995,0.1995,0.2097,0.2101,0.2105,0,0,0,0,0,0,0.2288,0.2275,0.2151,0.2198,0.218,0.2121,0.2096,0.2085,0.2066,0.2033,0.2029,0.2041,0.2004,0.2001,0.2013,0.2089,0.1995,0.1993,0.2093,0.2098,0.2103,0.2201,0,0,0,0,0,0,0.2292,0.2277,0.2277,0.2199,0.2179,0.2133,0.2095,0.2082,0.2059,0.2057,0.2027,0.2025,0.2004,0.2015,0.2012,0.2085,0.1992,0.2088,0.2095,0.2101,0.2194,0.2209,0.2223,0,0,0,0,0,0.2298,0.2299,0.2277,0.2265,0.2177,0.2135,0.2122,0.208,0.2059,0.2063,0.2045,0.2026,0.2059,0.2015,0.201,0.2086,0.2085,0.2093,0.2101,0.2187,0.2206,0.2223,0,0,0,0,0,0,0.2367,0.2292,0.2267,0.2246,0.2207,0.2128,0.2128,0.2088,0.2068,0.2072,0.2036,0.2034,0.2095,0.2069,0.2023,0.2144,0.2084,0.2091,0.2151,0.2169,0.2183,0.222,0.1991,0,0,0,0,0,0.238,0.2363,0.2291,0.2282,0.2263,0.2194,0.2173,0.214,0.2107,0.2096,0.2075,0.2081,0.2121,0.2124,0.2145,0.217,0.2176,0.2231,0.2246,0.2259,0.229,0.2351,0.2374,0.2132,0.2132,0.2132,0,0,0.2402,0.2364,0.2352,0.2296,0.2259,0.2243,0.2184,0.2161,0.2168,0.2102,0.2118,0.213,0.2144,0.2202,0.2228,0.2185,0.2331,0.2269,0.2279,0.2305,0.2362,0.2385,0.2406,0.2138,0.2137,0.2136,0,0,0.2437,0.2407,0.2398,0.2374,0.2328,0.2292,0.2291,0.2223,0.2221,0.2215,0.2218,0.2282,0.2262,0.233,0.2353,0.2463,0.2419,0.2461,0.2543,0.2602,0.2622,0.2639,0.2668,0.2687,0.2452,0.2452,0.2453,0,0.2467,0.2435,0.2396,0.2388,0.2372,0.2321,0.2311,0.231,0.2261,0.227,0.2245,0.2309,0.2348,0.2454,0.2521,0.2504,0.2491,0.2464,0.2619,0.2637,0.2653,0.2678,0.2698,0.2458,0.2457,0.2457,0.2456,0,0.248,0.2467,0.2468,0.2439,0.2432,0.2416,0.2402,0.241,0.239,0.2375,0.2452,0.2492,0.253,0.258,0.2587,0.2738,0.2676,0.2638,0.2566,0.2683,0.2702,0.2721,0.2466,0.2464,0.2462,0.2461,0,0,0.2493,0.2473,0.2472,0.2463,0.2446,0.2432,0.2482,0.2487,0.2506,0.2519,0.2554,0.2696,0.2696,0.2733,0.2762,0.2842,0.2986,0.2791,0.2792,0.2807,0.3072,0.2973,0.2983,0.2937,0.2941,0.2944,0.3034,0,0.25,0.2493,0.2484,0.2492,0.2481,0.2478,0.2515,0.2537,0.2551,0.2585,0.2672,0.2722,0.2757,0.2779,0.288,0.2957,0.3041,0.2964,0.297,0.2972,0.2857,0.3005,0.2862,0.2925,0.3053,0.3056,0.3058,0,0.2491,0.249,0.2487,0.2492,0.2485,0.2492,0.2524,0.2551,0.2624,0.2635,0.2709,0.274,0.2909,0.2896,0.3092,0.3014,0.308,0.313,0.3132,0.3024,0.2909,0.2834,0.2954,0.2827,0.3087,0.3084,0.3082,0,0.2486,0.2485,0.2479,0.2479,0.2487,0.2496,0.2504,0.2558,0.2574,0.2669,0.2675,0.2825,0.2882,0.301,0.3128,0.3107,0.3291,0.3262,0.3234,0.3225,0.3107,0.3079,0.3099,0.3418,0.3418,0.3418,0.3418,0,0.2477,0.247,0.2469,0.2466,0.2452,0.2479,0.248,0.2514,0.2567,0.2581,0.2694,0.2729,0.2911,0.3012,0.3134,0.3233,0.3292,0.3299,0.3266,0.3134,0.311,0.2992,0.293,0.3421,0.342,0.342,0.3419,0,0.2451,0.2459,0.244,0.2445,0.244,0.2428,0.242,0.243,0.2489,0.2518,0.2545,0.2674,0.2809,0.2958,0.3157,0.3209,0.3225,0.3345,0.3164,0.311,0.2964,0.2912,0.2847,0.2777,0.3359,0.3358,0.3356,0,0.2428,0.2416,0.2399,0.2379,0.2367,0.2352,0.2336,0.2377,0.2385,0.2466,0.2477,0.2609,0.2681,0.291,0.3064,0.3234,0.3143,0.3155,0.314,0.2977,0.2898,0.2791,0.273,0.3021,0.3017,0.3014,0.3012,0,0.2369,0.2357,0.234,0.2296,0.2268,0.2231,0.2218,0.221,0.2264,0.2296,0.2338,0.2406,0.262,0.2728,0.2924,0.3018,0.2954,0.3091,0.2988,0.2712,0.2536,0.244,0.2916,0.2983,0.2986,0.2988,0.2989,0.2991,0.23,0.2259,0.2228,0.2179,0.2149,0.2091,0.204,0.2057,0.2045,0.2077,0.2185,0.2264,0.2422,0.27,0.2751,0.2726,0.2786,0.2673,0.2649,0.2576,0.2434,0.2834,0.2812,0.2814,0.2816,0.2817,0.2818,0,0.2176,0.2148,0.2109,0.2032,0.1963,0.1982,0.1938,0.1891,0.1853,0.195,0.1992,0.2128,0.2196,0.2323,0.2382,0.2301,0.2248,0.2216,0.2049,0.2037,0.2453,0.2362,0.2159,0.2159,0.2159,0.2159,0.216,0.216,0.2108,0.2024,0.2003,0.1857,0.1812,0.1685,0.1643,0.1619,0.166,0.17,0.1782,0.19,0.1999,0.2005,0.1907,0.1881,0.1738,0.1639,0.1672,0.1954,0.1994,0.2033,0.1934,0.1645,0.1645,0.1178,0.1174,0.1171]},{"header":{"parameterUnit":"m.s-1","parameterCategory":2,"la1":30.2991,"la2":30.254,"lo1":-89.0895,"lo2":-89.0444,"dy":0.0017,"dx":0.0017,"nx":28,"ny":28,"refTime":"2023-10-24T03:00:00:Z","depth":"0","parameterNumber":3,"parameterNumberName":"V-component_of_CURRENTS"},"data":[0,0,0,0,0,0,0,0,0,0,0,0,0,0,0,0,0,0,0,0,0,0,0,0,0,0,0,0,0,0,0,0,0,0,0,0,0,0,0,0,0,0,0,0,0,0,0,0,0,0,0,0,0,0,0,0,0,0,0.0193,0.0192,0,0.0143,0.0143,0.0142,0.0103,0.0102,0.0102,0.0101,0.0077,0.0077,0.0077,0,0,0,0,0,0,0,0,0,0,0,0,0,0.0339,0.0336,0.0193,0.0192,0.0191,0.0143,0.0143,0.0142,0.0103,0.0102,0.0101,0.0101,0.0077,0.0077,0.0077,0,0,0,0,0,0,0,0,0,0,0,0,0,0.0283,0.0335,0.0193,0.0164,0.016,0.0143,0.0142,0.0142,0.0103,0.0102,0.0101,0.01,0.0077,0.0077,0.0077,0.0096,0,0,0.0077,0.0077,0,0,0,0,0,0,0,0,0.0286,0.0278,0.0169,0.0166,0.0162,0.0126,0.0185,0.0127,0.0103,0.0128,0.0101,0.01,0.0095,0.0093,0.0089,0.0094,0.0093,0.0077,0.0077,0.0077,0.0077,0,0,0,0,0,0,0,0.029,0.0281,0.0176,0.0168,0.0164,0.0182,0.0173,0.0174,0.012,0.0125,0.0122,0.0112,0.0093,0.009,0.0089,0.0093,0.0077,0.0077,0.0077,0.0077,0.0273,0.0278,0,0,0,0,0,0,0.0287,0.0284,0.0177,0.0174,0.022,0.018,0.0169,0.014,0.0119,0.0114,0.0113,0.0111,0.009,0.0089,0.0088,0.0225,0.0077,0.0077,0.0077,0.0268,0.0274,0.028,0,0,0,0,0,0,0.029,0.0277,0.0179,0.0227,0.0215,0.0177,0.0146,0.014,0.0133,0.0109,0.0105,0.0111,0.0089,0.0088,0.0136,0.0219,0.0077,0.0077,0.0262,0.027,0.0277,0.0425,0,0,0,0,0,0,0.0294,0.0278,0.027,0.0226,0.0212,0.0188,0.0146,0.014,0.0127,0.0123,0.0106,0.0103,0.0088,0.0137,0.0136,0.0217,0.0076,0.0255,0.0265,0.0275,0.0414,0.0437,0.0458,0,0,0,0,0,0.0299,0.0295,0.0269,0.0257,0.0196,0.0189,0.0185,0.0157,0.0128,0.0144,0.0154,0.0103,0.02,0.014,0.0138,0.0221,0.025,0.0262,0.0274,0.0404,0.0433,0.0457,0,0,0,0,0,0,0.0358,0.0288,0.026,0.0234,0.0219,0.0181,0.0194,0.0162,0.0177,0.0181,0.0148,0.0149,0.0233,0.0211,0.0146,0.0316,0.0226,0.0238,0.0326,0.0352,0.0374,0.0416,0.0076,0,0,0,0,0,0.0364,0.0344,0.0289,0.0277,0.0269,0.023,0.0224,0.0205,0.0203,0.0205,0.0199,0.0224,0.0283,0.0299,0.0335,0.0402,0.0363,0.0467,0.0489,0.0507,0.0547,0.0558,0.0583,0.0319,0.0319,0.0319,0,0,0.0387,0.0347,0.0336,0.029,0.0276,0.0306,0.0226,0.023,0.0285,0.0204,0.0287,0.0291,0.032,0.0422,0.0458,0.0408,0.0559,0.0522,0.0537,0.0568,0.0573,0.0598,0.062,0.0327,0.0326,0.0324,0,0,0.0443,0.0386,0.0397,0.0393,0.0373,0.0365,0.0366,0.0341,0.0361,0.0422,0.0415,0.0483,0.0517,0.0589,0.0623,0.0789,0.0676,0.0784,0.092,0.093,0.095,0.0968,0.0922,0.0935,0.0791,0.0791,0.0792,0,0.0478,0.0472,0.0409,0.0435,0.0454,0.0398,0.0449,0.0476,0.0481,0.0523,0.0477,0.0607,0.0625,0.0784,0.086,0.0842,0.0785,0.0805,0.0953,0.097,0.0986,0.0935,0.0947,0.08,0.0799,0.0798,0.0797,0,0.0546,0.0556,0.0572,0.0589,0.0608,0.064,0.0659,0.0702,0.0705,0.0723,0.0847,0.0876,0.0945,0.0982,0.0975,0.1122,0.1023,0.0972,0.0871,0.102,0.0958,0.0967,0.0812,0.0809,0.0807,0.0805,0,0,0.0584,0.0613,0.0621,0.066,0.0689,0.0712,0.0831,0.091,0.0979,0.102,0.1114,0.126,0.1225,0.1269,0.126,0.13,0.1364,0.1188,0.1184,0.1116,0.1323,0.1251,0.1252,0.1299,0.1303,0.1305,0.1222,0,0.0661,0.0741,0.0743,0.0858,0.0902,0.0919,0.1027,0.1101,0.1143,0.1221,0.1289,0.1368,0.1347,0.1363,0.1415,0.1379,0.14,0.1389,0.1214,0.121,0.1106,0.1268,0.1246,0.1171,0.123,0.1232,0.1233,0,0.0724,0.0771,0.088,0.098,0.1002,0.1073,0.1205,0.1291,0.1402,0.143,0.1513,0.1508,0.1631,0.1547,0.1584,0.1553,0.1473,0.1428,0.1421,0.1319,0.116,0.1043,0.1184,0.1032,0.1246,0.1245,0.1244,0,0.077,0.087,0.0962,0.0994,0.11,0.1173,0.124,0.1353,0.1434,0.1542,0.1581,0.1675,0.1704,0.1672,0.1608,0.1573,0.1581,0.1502,0.1365,0.1354,0.1295,0.1275,0.1258,0.1521,0.1521,0.1522,0.1522,0,0.0841,0.0914,0.0985,0.1037,0.1158,0.1213,0.1347,0.1423,0.1529,0.1632,0.1672,0.1748,0.173,0.1723,0.1642,0.1548,0.16,0.1438,0.1363,0.1344,0.1331,0.1158,0.1092,0.1518,0.1519,0.152,0.152,0,0.0873,0.0922,0.1022,0.1136,0.1176,0.1256,0.1388,0.1479,0.1569,0.1695,0.1729,0.1804,0.1797,0.1748,0.168,0.1582,0.1419,0.1435,0.1394,0.132,0.1045,0.0989,0.0958,0.0898,0.1277,0.1276,0.1274,0,0.0898,0.0946,0.1066,0.1123,0.1175,0.129,0.1376,0.1489,0.1578,0.1734,0.1795,0.1828,0.1868,0.1747,0.1596,0.1441,0.1344,0.1282,0.126,0.108,0.0962,0.0951,0.0903,0.1213,0.1211,0.121,0.1209,0,0.0932,0.0961,0.1039,0.1148,0.124,0.1351,0.1472,0.1544,0.1685,0.1784,0.1893,0.1933,0.1838,0.1702,0.1493,0.1379,0.1193,0.1242,0.1093,0.0979,0.0934,0.082,0.1166,0.1195,0.1197,0.1198,0.1199,0.1199,0.0937,0.0983,0.1068,0.1174,0.1276,0.1392,0.1472,0.1593,0.1722,0.1862,0.192,0.1984,0.1801,0.1531,0.1351,0.0995,0.1057,0.0882,0.0841,0.0855,0.0797,0.1098,0.1021,0.1021,0.1022,0.1022,0.1022,0,0.0934,0.0993,0.109,0.1214,0.1307,0.1376,0.1523,0.1589,0.1709,0.1855,0.1938,0.1901,0.1613,0.1338,0.0891,0.0646,0.0598,0.052,0.0509,0.0487,0.0775,0.0769,0.059,0.059,0.059,0.0591,0.0591,0.0591,0.0939,0.1009,0.1063,0.1202,0.1291,0.1404,0.1477,0.1571,0.1676,0.1798,0.1864,0.1928,0.1726,0.0962,0.0421,0.0311,0.016,0.0152,0.0077,0.0252,0.0283,0.0312,0.0292,0.0016,0.0015,-0.0179,-0.0181,-0.0183]}],[{"header":{"parameterUnit":"m.s-1","parameterCategory":2,"la1":30.2991,"la2":30.254,"lo1":-89.0895,"lo2":-89.0444,"dy":0.0017,"dx":0.0017,"nx":28,"ny":28,"refTime":"2023-10-24T03:00:00:Z","depth":"2","parameterNumber":2,"parameterNumberName":"U-component_of_CURRENTS"},"data":[0,0,0,0,0,0,0,0,0,0,0,0,0,0,0,0,0,0,0,0,0,0,0,0,0,0,0,0,0,0,0,0,0,0,0,0,0,0,0,0,0,0,0,0,0,0,0,0,0,0,0,0,0,0,0,0,0,0,0.2339,0.2339,0,0.2261,0.226,0.2258,0.2207,0.2207,0.2208,0.2208,0.2192,0.2191,0.219,0,0,0,0,0,0,0,0,0,0,0,0,0,0.2349,0.2349,0.2339,0.2339,0.2339,0.2262,0.226,0.2258,0.2207,0.2207,0.2208,0.2208,0.2192,0.2191,0.219,0,0,0,0,0,0,0,0,0,0,0,0,0,0.2308,0.2349,0.2339,0.231,0.2307,0.2262,0.226,0.2257,0.2207,0.2207,0.2208,0.2209,0.2192,0.2191,0.219,0.217,0,0,0.2186,0.2186,0,0,0,0,0,0,0,0,0.2311,0.2307,0.2315,0.2312,0.2309,0.2252,0.2258,0.2234,0.2207,0.2236,0.2208,0.2209,0.2222,0.2219,0.219,0.217,0.2169,0.2186,0.2185,0.2185,0.2185,0,0,0,0,0,0,0,0.2314,0.2309,0.23,0.2315,0.2311,0.2269,0.2264,0.2251,0.2222,0.2234,0.2232,0.2236,0.222,0.2191,0.219,0.2169,0.2186,0.2185,0.2184,0.2184,0.2222,0.2224,0,0,0,0,0,0,0.2344,0.2313,0.2303,0.2299,0.232,0.2269,0.2263,0.2263,0.2221,0.2217,0.2236,0.2234,0.2193,0.2191,0.2189,0.2253,0.2185,0.2184,0.2183,0.2221,0.2223,0.2225,0,0,0,0,0,0,0.2344,0.2343,0.2306,0.231,0.2304,0.227,0.2269,0.2261,0.2243,0.2223,0.2218,0.2228,0.2194,0.2191,0.2191,0.2249,0.2183,0.2182,0.2219,0.2221,0.2224,0.2324,0,0,0,0,0,0,0.2345,0.2344,0.2352,0.2313,0.2305,0.2305,0.2269,0.2259,0.2248,0.2245,0.2215,0.2213,0.2194,0.2193,0.219,0.2246,0.2181,0.2216,0.222,0.2223,0.2319,0.233,0.234,0,0,0,0,0,0.2345,0.2349,0.2353,0.2352,0.2318,0.2307,0.2298,0.227,0.2247,0.2251,0.2224,0.2214,0.2213,0.2192,0.2188,0.2246,0.2215,0.2219,0.2223,0.2314,0.2328,0.2339,0,0,0,0,0,0,0.2345,0.2344,0.2347,0.2349,0.2347,0.2302,0.2298,0.2276,0.2251,0.2247,0.2217,0.2214,0.2243,0.2222,0.2201,0.2268,0.222,0.2224,0.2292,0.2304,0.2314,0.2283,0.218,0,0,0,0,0,0.2357,0.2359,0.236,0.2358,0.2367,0.2334,0.2324,0.2308,0.2284,0.2271,0.2246,0.2236,0.2252,0.2259,0.2254,0.2277,0.2252,0.2318,0.2328,0.2337,0.231,0.2322,0.2331,0.2238,0.2238,0.2237,0,0,0.2353,0.2353,0.2353,0.236,0.2349,0.2347,0.2327,0.2321,0.2316,0.2277,0.2255,0.2264,0.2264,0.2296,0.231,0.229,0.2359,0.2342,0.235,0.2317,0.2327,0.2336,0.2344,0.224,0.224,0.2239,0,0,0.2334,0.2356,0.2353,0.2361,0.2369,0.2359,0.2367,0.2341,0.2336,0.2337,0.2316,0.2346,0.2348,0.236,0.2371,0.2432,0.241,0.2455,0.2487,0.2501,0.2508,0.2514,0.2527,0.2533,0.2466,0.2466,0.2466,0,0.233,0.2329,0.2349,0.2351,0.2357,0.237,0.2368,0.2367,0.2338,0.2344,0.2352,0.237,0.238,0.2422,0.2455,0.2457,0.2452,0.2444,0.2514,0.2519,0.2523,0.2534,0.2539,0.2471,0.2471,0.247,0.247,0,0.2305,0.2316,0.2318,0.233,0.2342,0.2348,0.237,0.2378,0.2392,0.2393,0.2439,0.2454,0.2476,0.2507,0.2503,0.2553,0.2538,0.2524,0.248,0.2538,0.2547,0.2551,0.2479,0.2477,0.2475,0.2474,0,0,0.2264,0.2295,0.2299,0.231,0.2337,0.2343,0.2365,0.2393,0.2409,0.2438,0.2463,0.2525,0.255,0.2561,0.258,0.259,0.2649,0.2576,0.2574,0.2584,0.268,0.2586,0.2581,0.2651,0.2652,0.2652,0.2686,0,0.224,0.2249,0.2267,0.2278,0.2291,0.2328,0.2346,0.2377,0.2419,0.245,0.2512,0.2552,0.2573,0.2611,0.2634,0.263,0.2657,0.264,0.2622,0.2621,0.2527,0.2581,0.2334,0.2334,0.2689,0.2689,0.269,0,0.2212,0.2224,0.2237,0.2271,0.2282,0.2294,0.2348,0.2364,0.2429,0.2468,0.2534,0.2577,0.2634,0.264,0.2678,0.2668,0.2685,0.2677,0.2678,0.2543,0.2532,0.2327,0.2327,0.2695,0.2695,0.2694,0.2694,0,0.2185,0.2206,0.2222,0.2234,0.2272,0.2293,0.2318,0.2374,0.2404,0.2485,0.2527,0.2597,0.2642,0.2668,0.2708,0.2697,0.2723,0.2712,0.2642,0.2636,0.2391,0.2362,0.2734,0.2734,0.2733,0.2733,0.2733,0,0.2157,0.2172,0.2218,0.2229,0.2251,0.2284,0.2321,0.2359,0.2421,0.2464,0.2545,0.2593,0.2648,0.269,0.2713,0.2691,0.2749,0.2636,0.2632,0.2424,0.2398,0.267,0.2662,0.2735,0.2734,0.2734,0.2734,0,0.213,0.2159,0.218,0.2226,0.2242,0.2264,0.2321,0.2349,0.241,0.247,0.2506,0.2592,0.2637,0.2685,0.2716,0.2682,0.2679,0.2665,0.2418,0.2382,0.258,0.2577,0.2565,0.2561,0.2559,0.2557,0.2555,0,0.2124,0.2132,0.218,0.2198,0.2223,0.2261,0.2287,0.2345,0.2378,0.2469,0.2496,0.2566,0.2591,0.2597,0.2519,0.2503,0.2647,0.2302,0.2222,0.2561,0.256,0.2562,0.2563,0.1961,0.1954,0.1949,0.1944,0,0.211,0.2132,0.2148,0.2183,0.2215,0.2238,0.2284,0.2302,0.2371,0.2412,0.247,0.2487,0.2443,0.228,0.2235,0.2205,0.2275,0.2189,0.2606,0.2039,0.1993,0.1992,0.2013,0.1896,0.1901,0.1905,0.1907,0.1909,0.2108,0.2114,0.2142,0.2168,0.2198,0.2215,0.2217,0.2248,0.2273,0.2235,0.2304,0.2182,0.2127,0.1869,0.1837,0.1801,0.1949,0.1884,0.19,0.1922,0.1843,0.1794,0.1646,0.1649,0.1652,0.1654,0.1657,0,0.2105,0.2117,0.2131,0.2151,0.2157,0.2197,0.2213,0.2136,0.2124,0.2025,0.1967,0.1646,0.1487,0.1504,0.1327,0.1316,0.1294,0.1321,0.1285,0.1331,0.1372,0.1267,0.0917,0.0915,0.0914,0.0912,0,0,0.2104,0.2108,0.2103,0.2107,0.213,0.2127,0.2127,0.1983,0.1862,0.159,0.1432,0.1295,0.1368,0.1075,0.1057,0.0982,0.1153,0.0935,0.1516,0.1514,0.1554,0.167,0.1555,0,0,0,0,0]},{"header":{"parameterUnit":"m.s-1","parameterCategory":2,"la1":30.2991,"la2":30.254,"lo1":-89.0895,"lo2":-89.0444,"dy":0.0017,"dx":0.0017,"nx":28,"ny":28,"refTime":"2023-10-24T03:00:00:Z","depth":"2","parameterNumber":3,"parameterNumberName":"V-component_of_CURRENTS"},"data":[0,0,0,0,0,0,0,0,0,0,0,0,0,0,0,0,0,0,0,0,0,0,0,0,0,0,0,0,0,0,0,0,0,0,0,0,0,0,0,0,0,0,0,0,0,0,0,0,0,0,0,0,0,0,0,0,0,0,-0.02,-0.02,0,-0.0154,-0.0154,-0.0153,-0.0179,-0.018,-0.0181,-0.0182,-0.0228,-0.0229,-0.0229,0,0,0,0,0,0,0,0,0,0,0,0,0,-0.0271,-0.027,-0.0201,-0.02,-0.0199,-0.0154,-0.0154,-0.0153,-0.0179,-0.018,-0.0181,-0.0182,-0.0228,-0.0229,-0.0229,0,0,0,0,0,0,0,0,0,0,0,0,0,-0.0238,-0.027,-0.0201,-0.0203,-0.0203,-0.0154,-0.0154,-0.0153,-0.0179,-0.018,-0.0182,-0.0183,-0.0228,-0.0229,-0.0229,-0.0205,0,0,-0.0231,-0.0231,0,0,0,0,0,0,0,0,-0.024,-0.0236,-0.0204,-0.0203,-0.0202,-0.017,-0.0195,-0.0174,-0.0178,-0.0192,-0.0182,-0.0184,-0.0214,-0.0216,-0.0208,-0.0207,-0.0209,-0.0231,-0.0231,-0.0232,-0.0232,0,0,0,0,0,0,0,-0.0242,-0.0237,-0.0186,-0.0203,-0.0202,-0.0192,-0.019,-0.0191,-0.02,-0.0191,-0.0192,-0.018,-0.0215,-0.0207,-0.021,-0.021,-0.0231,-0.0231,-0.0232,-0.0232,-0.0281,-0.0282,0,0,0,0,0,0,-0.024,-0.024,-0.0187,-0.0184,-0.022,-0.019,-0.0187,-0.0182,-0.0198,-0.02,-0.0179,-0.0181,-0.0206,-0.0209,-0.0211,-0.0239,-0.0232,-0.0232,-0.0232,-0.028,-0.0281,-0.0282,0,0,0,0,0,0,-0.0242,-0.0236,-0.0189,-0.0208,-0.02,-0.0187,-0.0181,-0.0181,-0.0162,-0.0187,-0.0192,-0.0159,-0.0207,-0.0211,-0.0207,-0.024,-0.0232,-0.0233,-0.0279,-0.028,-0.0282,-0.026,0,0,0,0,0,0,-0.0245,-0.0238,-0.0223,-0.0208,-0.0199,-0.0153,-0.0179,-0.0179,-0.0151,-0.0154,-0.0172,-0.0179,-0.0208,-0.0206,-0.0208,-0.024,-0.0233,-0.0278,-0.028,-0.0281,-0.0259,-0.026,-0.0261,0,0,0,0,0,-0.0247,-0.0238,-0.0223,-0.0215,-0.0183,-0.0151,-0.0146,-0.0144,-0.0149,-0.0133,-0.015,-0.0177,-0.0222,-0.0205,-0.0208,-0.0241,-0.0277,-0.0279,-0.0281,-0.0259,-0.026,-0.0261,0,0,0,0,0,0,-0.0294,-0.0238,-0.0222,-0.0205,-0.0169,-0.0154,-0.0138,-0.0127,-0.0123,-0.0127,-0.0159,-0.0166,-0.0183,-0.0206,-0.0188,-0.0265,-0.0266,-0.0268,-0.0248,-0.0249,-0.025,-0.0279,-0.0234,0,0,0,0,0,-0.0284,-0.0256,-0.0206,-0.0199,-0.0169,-0.0143,-0.0125,-0.0115,-0.0111,-0.0109,-0.0127,-0.016,-0.0193,-0.0212,-0.0233,-0.0251,-0.0282,-0.0286,-0.0287,-0.0288,-0.0315,-0.0378,-0.0387,-0.0289,-0.0289,-0.0289,0,0,-0.0314,-0.0273,-0.0266,-0.0204,-0.0177,-0.0166,-0.0137,-0.0102,-0.0124,-0.0115,-0.0148,-0.0144,-0.0193,-0.0227,-0.0241,-0.0251,-0.0324,-0.0291,-0.029,-0.0318,-0.0381,-0.0391,-0.0399,-0.0291,-0.0291,-0.029,0,0,-0.0363,-0.0303,-0.0291,-0.0251,-0.0184,-0.0164,-0.0147,-0.0107,-0.0111,-0.011,-0.0134,-0.0143,-0.0179,-0.0232,-0.0265,-0.0281,-0.0314,-0.0292,-0.0332,-0.0392,-0.04,-0.0408,-0.042,-0.043,-0.0308,-0.0308,-0.0308,0,-0.0398,-0.0372,-0.0288,-0.0266,-0.0245,-0.0168,-0.0167,-0.0161,-0.0139,-0.0145,-0.0127,-0.0183,-0.0201,-0.028,-0.0293,-0.0287,-0.0306,-0.0317,-0.0393,-0.0402,-0.0411,-0.0421,-0.0432,-0.0307,-0.0307,-0.0307,-0.0307,0,-0.0433,-0.041,-0.0398,-0.0348,-0.0316,-0.0289,-0.0252,-0.0232,-0.021,-0.0208,-0.023,-0.0237,-0.0265,-0.0289,-0.0297,-0.0377,-0.0361,-0.037,-0.0386,-0.0419,-0.0428,-0.0439,-0.0306,-0.0306,-0.0306,-0.0306,0,0,-0.0504,-0.0437,-0.0432,-0.0409,-0.0342,-0.0314,-0.0337,-0.0319,-0.032,-0.0311,-0.0329,-0.0383,-0.0331,-0.0366,-0.0366,-0.0441,-0.049,-0.0433,-0.0436,-0.0438,-0.059,-0.0427,-0.0424,-0.0508,-0.0511,-0.0513,-0.0555,0,-0.055,-0.0537,-0.0497,-0.0495,-0.0464,-0.0407,-0.0428,-0.0407,-0.0379,-0.0369,-0.0385,-0.0367,-0.038,-0.0338,-0.0425,-0.0473,-0.0528,-0.0477,-0.0566,-0.0568,-0.0415,-0.0436,-0.0446,-0.0472,-0.0567,-0.0569,-0.057,0,-0.0568,-0.0549,-0.0558,-0.0516,-0.0498,-0.0502,-0.0462,-0.0467,-0.0451,-0.0414,-0.0409,-0.0364,-0.0427,-0.0408,-0.0557,-0.0519,-0.0549,-0.0604,-0.0606,-0.0481,-0.0429,-0.0465,-0.049,-0.059,-0.0589,-0.0587,-0.0586,0,-0.0589,-0.0577,-0.0582,-0.0567,-0.0526,-0.0528,-0.0508,-0.0483,-0.0459,-0.0404,-0.0356,-0.0407,-0.0391,-0.0492,-0.0525,-0.0544,-0.0679,-0.0712,-0.0605,-0.0592,-0.0635,-0.0619,-0.0815,-0.0815,-0.0815,-0.0814,-0.0814,0,-0.0599,-0.0594,-0.0588,-0.0574,-0.0557,-0.0533,-0.0506,-0.0476,-0.0439,-0.0387,-0.0354,-0.0304,-0.0415,-0.0454,-0.0531,-0.0574,-0.0666,-0.0618,-0.0603,-0.0617,-0.0601,-0.0742,-0.0732,-0.0816,-0.0816,-0.0815,-0.0815,0,-0.058,-0.0591,-0.0573,-0.0561,-0.0551,-0.0525,-0.0471,-0.0436,-0.0407,-0.0336,-0.0288,-0.0258,-0.0255,-0.0337,-0.0466,-0.054,-0.0611,-0.0587,-0.0551,-0.0529,-0.0495,-0.0485,-0.0528,-0.0523,-0.0519,-0.0515,-0.0512,0,-0.0566,-0.0563,-0.0546,-0.052,-0.0505,-0.0471,-0.0428,-0.0397,-0.0345,-0.0284,-0.0236,-0.0181,-0.0055,-0.0163,-0.0285,-0.0357,-0.042,-0.0419,-0.0463,-0.049,-0.0472,-0.0468,-0.0464,-0.0517,-0.0515,-0.0512,-0.051,0,-0.0527,-0.0528,-0.05,-0.0453,-0.0413,-0.0364,-0.0311,-0.0266,-0.0213,-0.0132,-0.0011,0.01,0.0065,0.0037,-0.0032,-0.0122,-0.0412,-0.0366,-0.0461,-0.0538,-0.0469,-0.0453,-0.0453,-0.049,-0.0492,-0.0494,-0.0495,-0.0496,-0.0484,-0.0451,-0.042,-0.0365,-0.0314,-0.0242,-0.0186,-0.0099,0.002,0.0178,0.0205,0.0362,0.023,0.0217,0.008,-0.0131,-0.0158,-0.0281,-0.0295,-0.031,-0.0251,-0.0173,-0.0127,-0.0127,-0.0127,-0.0127,-0.0127,0,-0.0416,-0.0388,-0.0334,-0.0256,-0.0178,-0.0184,-0.0088,0.0016,0.0199,0.035,0.0521,0.0484,0.0485,0.0322,0.0044,-0.0088,-0.0201,-0.0139,-0.0289,-0.0306,-0.0322,-0.0271,-0.015,-0.015,-0.015,-0.015,0,0,-0.0375,-0.0311,-0.0284,-0.015,-0.0096,-0.0002,0.0052,0.0238,0.0365,0.0603,0.068,0.0798,0.0563,0.0372,0.0162,0.0006,-0.0123,-0.0029,-0.0002,-0.0172,-0.0186,-0.0396,-0.0331,0,0,0,0,0]}],[{"header":{"parameterUnit":"m.s-1","parameterCategory":2,"la1":30.2991,"la2":30.254,"lo1":-89.0895,"lo2":-89.0444,"dy":0.0017,"dx":0.0017,"nx":28,"ny":28,"refTime":"2023-10-24T03:00:00:Z","depth":"4","parameterNumber":2,"parameterNumberName":"U-component_of_CURRENTS"},"data":[0,0,0,0,0,0,0,0,0,0,0,0,0,0,0,0,0,0,0,0,0,0,0,0,0,0,0,0,0,0,0,0,0,0,0,0,0,0,0,0,0,0,0,0,0,0,0,0,0,0,0,0,0,0,0,0,0,0,0.0135,0.0135,0,0.0168,0.0169,0.017,0.0254,0.0256,0.0257,0.0258,0.0406,0.0409,0.0411,0,0,0,0,0,0,0,0,0,0,0,0,0,0.0156,0.0155,0.0135,0.0135,0.0135,0.0168,0.0169,0.017,0.0254,0.0256,0.0257,0.0259,0.0405,0.0408,0.0412,0,0,0,0,0,0,0,0,0,0,0,0,0,0.0169,0.0155,0.0135,0.0176,0.018,0.0168,0.0169,0.0171,0.0254,0.0256,0.0258,0.0259,0.0404,0.0408,0.0412,0.0401,0,0,0.0425,0.0427,0,0,0,0,0,0,0,0,0.0168,0.0169,0.017,0.0173,0.0177,0.0204,0.0231,0.0251,0.0253,0.0232,0.0258,0.026,0.0344,0.0353,0.0362,0.0408,0.0414,0.0425,0.0428,0.043,0.0431,0,0,0,0,0,0,0,0.0167,0.0168,0.0154,0.017,0.0174,0.0197,0.0201,0.0235,0.0284,0.0234,0.0239,0.0232,0.0348,0.0358,0.0366,0.0416,0.0425,0.0429,0.0431,0.0433,0.0622,0.0624,0,0,0,0,0,0,0.0148,0.0167,0.0153,0.0155,0.0171,0.0194,0.02,0.0198,0.0281,0.0293,0.0231,0.0236,0.035,0.0361,0.0372,0.0526,0.043,0.0433,0.0436,0.0619,0.0622,0.0625,0,0,0,0,0,0,0.0149,0.0147,0.0152,0.0157,0.0158,0.0191,0.019,0.0198,0.0263,0.0276,0.0292,0.0293,0.0351,0.0366,0.0466,0.0527,0.0435,0.0439,0.0616,0.062,0.0624,0.0731,0,0,0,0,0,0,0.0149,0.0147,0.0153,0.0155,0.0157,0.0175,0.0187,0.0197,0.025,0.0259,0.0333,0.0346,0.0354,0.046,0.047,0.0531,0.0442,0.0613,0.0618,0.0622,0.0724,0.0738,0.0749,0,0,0,0,0,0.015,0.0143,0.0154,0.0152,0.016,0.0175,0.018,0.0213,0.0251,0.0281,0.0353,0.0346,0.0497,0.0466,0.0477,0.054,0.0611,0.0617,0.0622,0.0718,0.0735,0.0749,0,0,0,0,0,0,0.0161,0.015,0.0162,0.0156,0.0178,0.0188,0.0212,0.0243,0.032,0.0352,0.0384,0.0402,0.0507,0.0508,0.0474,0.0607,0.055,0.0558,0.0619,0.0635,0.0647,0.0607,0.0446,0,0,0,0,0,0.016,0.0155,0.0161,0.0162,0.0179,0.0211,0.0229,0.0257,0.0308,0.0346,0.0412,0.0475,0.0526,0.0573,0.0612,0.0691,0.0654,0.0736,0.0749,0.076,0.0734,0.0736,0.0745,0.0644,0.0644,0.0643,0,0,0.0158,0.0156,0.0151,0.0164,0.0191,0.0219,0.0232,0.0274,0.0318,0.0349,0.0471,0.0526,0.0557,0.0648,0.0694,0.0668,0.0777,0.0767,0.0776,0.0744,0.0743,0.0752,0.076,0.0647,0.0647,0.0646,0,0,0.0152,0.0165,0.0166,0.0193,0.0231,0.0249,0.0277,0.0337,0.0392,0.0494,0.053,0.0619,0.0722,0.0747,0.0769,0.0871,0.084,0.0908,0.0949,0.0953,0.096,0.0966,0.0956,0.096,0.0919,0.0919,0.0919,0,0.0153,0.0157,0.0173,0.0199,0.0225,0.0275,0.0308,0.0358,0.0454,0.0503,0.0552,0.0709,0.0753,0.0824,0.0876,0.0897,0.0894,0.0892,0.0967,0.0972,0.0976,0.0964,0.0967,0.0925,0.0924,0.0924,0.0923,0,0.0162,0.0176,0.019,0.0234,0.0269,0.0307,0.0368,0.0447,0.0537,0.0585,0.0716,0.079,0.0878,0.092,0.094,0.1005,0.0993,0.0979,0.0922,0.0992,0.0976,0.0977,0.0933,0.0931,0.0929,0.0928,0,0,0.0134,0.018,0.0188,0.0217,0.0297,0.0323,0.0413,0.0487,0.0554,0.068,0.0766,0.0887,0.0949,0.0975,0.1023,0.1038,0.1094,0.1042,0.104,0.102,0.1107,0.1022,0.1014,0.111,0.111,0.1111,0.1092,0,0.0142,0.0171,0.0204,0.0261,0.0292,0.037,0.0449,0.0534,0.0624,0.0727,0.081,0.092,0.0961,0.1041,0.1066,0.1085,0.1099,0.1099,0.105,0.1047,0.0953,0.1013,0.1112,0.1093,0.1093,0.1093,0.1093,0,0.0154,0.0167,0.021,0.0281,0.0309,0.037,0.0496,0.057,0.0696,0.0777,0.0884,0.0955,0.1041,0.106,0.1105,0.1115,0.1121,0.1116,0.1115,0.0985,0.0963,0.1003,0.1094,0.1094,0.1094,0.1094,0.1094,0,0.0132,0.0178,0.0208,0.0237,0.0329,0.0398,0.0478,0.0605,0.0682,0.0819,0.0888,0.0986,0.1059,0.1082,0.1108,0.1129,0.1107,0.1126,0.1038,0.1032,0.1064,0.1057,0.1124,0.1124,0.1124,0.1124,0.1124,0,0.0133,0.0155,0.021,0.0235,0.0322,0.0402,0.0524,0.0615,0.074,0.0804,0.0929,0.0984,0.1071,0.1083,0.1098,0.1061,0.1103,0.1034,0.102,0.1115,0.1114,0.1065,0.1059,0.1123,0.1123,0.1123,0.1124,0,0.0116,0.0142,0.0177,0.0266,0.0319,0.0394,0.0566,0.0619,0.0758,0.0838,0.0892,0.0997,0.1025,0.1053,0.1064,0.1035,0.101,0.0977,0.1059,0.1051,0.0941,0.094,0.0902,0.0899,0.0896,0.0894,0.0892,0,0.0101,0.0118,0.02,0.0231,0.0287,0.0413,0.0487,0.0641,0.0682,0.0822,0.0827,0.091,0.0962,0.0914,0.0949,0.094,0.0929,0.0903,0.0946,0.0927,0.0917,0.0921,0.0925,0.0887,0.0887,0.0886,0.0885,0,0.0077,0.0114,0.0144,0.0208,0.028,0.0368,0.0481,0.0519,0.0648,0.0737,0.0782,0.0826,0.0831,0.0864,0.0845,0.084,0.0921,0.0875,0.0882,0.0922,0.0909,0.0903,0.091,0.0876,0.0877,0.0878,0.0879,0,0.0056,0.0078,0.0122,0.0185,0.0254,0.0317,0.0393,0.0451,0.0542,0.0666,0.0659,0.0742,0.0805,0.0808,0.0788,0.0778,0.0793,0.0774,0.0787,0.0797,0.0772,0.074,0.0635,0,0,0,0,0,0.0039,0.0065,0.0094,0.0157,0.0206,0.0272,0.0367,0.0422,0.0518,0.0519,0.0609,0.0621,0.0658,0.0705,0.0679,0.0734,0.0779,0.0698,0.0759,0.0824,0.0835,0.0814,0,0,0,0,0,0,0.0027,0.0056,0.0081,0.0124,0.0154,0.0227,0.0295,0.0349,0.0383,0.0468,0.0501,0.056,0.061,0.0659,0.0659,0.0666,0.0687,0.0742,0.074,0.0817,0.0827,0.0836,0.0819,0,0,0,0,0]},{"header":{"parameterUnit":"m.s-1","parameterCategory":2,"la1":30.2991,"la2":30.254,"lo1":-89.0895,"lo2":-89.0444,"dy":0.0017,"dx":0.0017,"nx":28,"ny":28,"refTime":"2023-10-24T03:00:00:Z","depth":"4","parameterNumber":3,"parameterNumberName":"V-component_of_CURRENTS"},"data":[0,0,0,0,0,0,0,0,0,0,0,0,0,0,0,0,0,0,0,0,0,0,0,0,0,0,0,0,0,0,0,0,0,0,0,0,0,0,0,0,0,0,0,0,0,0,0,0,0,0,0,0,0,0,0,0,0,0,0.0332,0.0333,0,0.0334,0.0334,0.0333,0.0336,0.0337,0.0337,0.0338,0.0247,0.0244,0.0241,0,0,0,0,0,0,0,0,0,0,0,0,0,0.0237,0.0239,0.0332,0.0333,0.0334,0.0334,0.0334,0.0333,0.0336,0.0337,0.0338,0.0338,0.0248,0.0245,0.0241,0,0,0,0,0,0,0,0,0,0,0,0,0,0.0256,0.0239,0.0332,0.034,0.0341,0.0335,0.0334,0.0333,0.0336,0.0337,0.0338,0.0339,0.0249,0.0245,0.024,0.0192,0,0,0.0226,0.0224,0,0,0,0,0,0,0,0,0.0255,0.0259,0.0338,0.034,0.0341,0.0342,0.0267,0.0284,0.0335,0.0331,0.0338,0.0339,0.0274,0.0267,0.0257,0.0187,0.0184,0.0226,0.0223,0.0221,0.022,0,0,0,0,0,0,0,0.0254,0.0258,0.0326,0.0339,0.0341,0.0312,0.0316,0.027,0.0289,0.0331,0.0333,0.0344,0.0273,0.0262,0.0255,0.0182,0.0226,0.0222,0.0219,0.0217,0.0063,0.0061,0,0,0,0,0,0,0.0272,0.0258,0.0326,0.0327,0.0308,0.0314,0.0318,0.0335,0.0292,0.0289,0.0343,0.0344,0.0269,0.026,0.0252,0.02,0.0221,0.0217,0.0214,0.0064,0.0062,0.0061,0,0,0,0,0,0,0.027,0.0278,0.0326,0.0297,0.0302,0.0316,0.0334,0.0335,0.0326,0.0304,0.0298,0.0335,0.0269,0.0258,0.0212,0.0196,0.0215,0.0211,0.0066,0.0064,0.0062,0.0091,0,0,0,0,0,0,0.0267,0.0277,0.0288,0.0299,0.0305,0.032,0.0334,0.0334,0.0334,0.0335,0.0294,0.0287,0.0269,0.0219,0.0207,0.019,0.0207,0.0067,0.0065,0.0062,0.0092,0.009,0.0089,0,0,0,0,0,0.0264,0.0283,0.0288,0.0297,0.0322,0.0321,0.0319,0.0327,0.0333,0.0322,0.0299,0.0289,0.0194,0.0214,0.0201,0.0182,0.0069,0.0066,0.0063,0.0092,0.0091,0.0089,0,0,0,0,0,0,0.0258,0.0287,0.0292,0.0323,0.0319,0.0324,0.0329,0.0323,0.0296,0.0298,0.027,0.026,0.021,0.0187,0.0209,0.0128,0.0129,0.0123,0.0156,0.0154,0.0152,0.0196,0.0203,0,0,0,0,0,0.026,0.0276,0.0291,0.0312,0.0318,0.0317,0.0317,0.0316,0.0302,0.0293,0.0262,0.0226,0.0184,0.0165,0.012,0.0077,0.007,0.0054,0.0053,0.0052,0.0076,0.0048,0.0048,0.0051,0.0051,0.0051,0,0,0.027,0.0284,0.0297,0.031,0.0316,0.0327,0.0318,0.0321,0.0321,0.0283,0.0262,0.0212,0.0167,0.0122,0.0098,0.0106,0.0042,0.0048,0.0048,0.0073,0.0045,0.0045,0.0045,0.0049,0.0049,0.005,0,0,0.0293,0.0306,0.0326,0.0327,0.0333,0.0328,0.0328,0.0319,0.0308,0.0272,0.0246,0.0201,0.013,0.0109,0.0087,0.0048,0.0028,0.0014,0.0052,0.0024,0.0025,0.0025,0.0006,0.0005,0.0023,0.0023,0.0023,0,0.03,0.0334,0.0327,0.0345,0.0357,0.0333,0.0352,0.0334,0.0303,0.0289,0.0269,0.0176,0.0134,0.01,0.0087,0.0049,0.0029,0.0067,0.0026,0.0026,0.0027,0.0007,0.0005,0.0024,0.0024,0.0024,0.0023,0,0.034,0.0364,0.0377,0.0394,0.0393,0.0403,0.039,0.0365,0.0338,0.0316,0.0259,0.0199,0.0154,0.0117,0.0092,0.0062,0.0044,0.0023,0.0042,0.0029,0.0008,0.0005,0.0025,0.0025,0.0025,0.0024,0,0,0.0363,0.0399,0.0404,0.0415,0.0421,0.0419,0.0418,0.0401,0.039,0.0338,0.032,0.0245,0.0208,0.0182,0.0131,0.0108,0.0079,0.007,0.0068,0.0072,0.0017,-0.0009,-0.0014,0.0044,0.0044,0.0044,-0.0,0,0.0395,0.0436,0.0447,0.0474,0.049,0.0474,0.048,0.0454,0.0406,0.037,0.0316,0.0273,0.0235,0.0203,0.0173,0.009,0.0075,0.0093,0.0012,0.001,0.0006,-0.0016,0.0044,-0.0002,-0.0002,-0.0003,-0.0003,0,0.0426,0.0446,0.0491,0.0508,0.0517,0.0541,0.0522,0.0515,0.0469,0.0432,0.0387,0.0328,0.0285,0.0248,0.0155,0.0163,0.0106,0.0053,0.0049,0.0022,-0.0019,0.0012,-0.0007,-0.0007,-0.0007,-0.0006,-0.0006,0,0.042,0.0468,0.0501,0.0513,0.0538,0.0562,0.0576,0.0545,0.0533,0.0478,0.0447,0.0382,0.0341,0.0269,0.0153,0.015,0.0045,0.0026,-0.0038,-0.0041,-0.0013,-0.0013,-0.0014,-0.0014,-0.0014,-0.0014,-0.0014,0,0.0432,0.0457,0.0514,0.0531,0.0582,0.0589,0.062,0.0607,0.0588,0.0559,0.0494,0.0446,0.0341,0.0254,0.0168,0.0053,0.006,-0.0023,-0.0053,-0.0004,-0.0003,-0.0015,-0.0014,-0.0015,-0.0015,-0.0015,-0.0014,0,0.0415,0.0454,0.0491,0.0548,0.0586,0.0618,0.0686,0.067,0.0663,0.062,0.061,0.05,0.0378,0.0268,0.0131,0.0067,-0.0036,-0.0072,-0.0005,-0.0032,-0.0101,-0.0099,-0.0138,-0.0139,-0.014,-0.0141,-0.0142,0,0.0407,0.0433,0.0512,0.0547,0.0591,0.0658,0.0691,0.0716,0.0692,0.0635,0.0597,0.0493,0.0401,0.0207,0.0092,-0.0054,-0.0076,-0.0111,-0.0102,-0.0088,-0.0113,-0.011,-0.0106,-0.0143,-0.0144,-0.0144,-0.0144,0,0.0396,0.0435,0.0461,0.0542,0.06,0.0653,0.0706,0.0702,0.0684,0.0679,0.0577,0.0471,0.0329,0.0186,0.0071,-0.0035,-0.0082,-0.0123,-0.0121,-0.0113,-0.0096,-0.0119,-0.0114,-0.0148,-0.0148,-0.0147,-0.0147,0,0.0388,0.0407,0.0459,0.052,0.0595,0.0633,0.0662,0.065,0.0656,0.0596,0.056,0.0424,0.0358,0.0194,0.0081,-0.0023,-0.0045,-0.0062,-0.0064,-0.0061,-0.0032,0.0001,-0.004,0,0,0,0,0,0.0383,0.0401,0.0439,0.0498,0.056,0.0614,0.0654,0.0658,0.0653,0.0579,0.058,0.0447,0.0271,0.0196,0.0087,0.0052,-0.0069,-0.0079,-0.0091,-0.0169,-0.0164,-0.0146,0,0,0,0,0,0,0.0378,0.0416,0.0423,0.0477,0.0511,0.0576,0.0604,0.0586,0.0559,0.0542,0.0452,0.0427,0.0258,0.0332,0.0086,0.0054,0.0033,-0.0151,-0.0153,-0.0171,-0.0167,-0.0164,-0.0143,0,0,0,0,0]}]]